www.pogodaiklimat.ru

ПОГОДА в Солсбери, NC

  • Прогноз погоды в Солсбери
  • Монитор погоды в Солсбери
  • Климат в Солсбери

АРХИВ ПОГОДЫ в Солсбери

Время (UTC), дата Ветер
(напр.,м/с)
 
Видим.   Явления Облачность Т
(С)
Тd
(С)
f
(%)
Тe
(С)
Тes
(С)
Комфортность

P
(гПа)

Po
(гПа)
Тmin
(С)
Tmax
(С)
R
(мм)
SD
(см)
18:40 25.05 З  16 км    5/5 1500 м
[средняя] 
+32.5  +20.0  48  +39  +49  очень
душно 
  991.0         
19:00 25.05 Ю  16 км    ясно  +32.2  +19.3  46  +38  +49  очень
душно 
  991.0         
19:20 25.05   16 км    5/0 2100 м
[средняя] 
+32.5  +19.8  47  +38  +51  опасность
солнечного
удара 
  990.6         
19:40 25.05 Ю  16 км    5/0 2100 м
[средняя] 
+32.3  +19.9  48  +38  +46  очень
душно 
  990.6         
20:00 25.05 Ю  16 км    5/0 2100 м
[средняя] 
+33.0  +19.9  46  +39  +43  очень
душно 
  990.3         
20:20 25.05 Ю  16 км    5/0 2100 м
[средняя] 
+32.9  +19.9  46  +39  +44  очень
душно 
  990.3         
20:40 25.05 Ю  16 км    5/0 2100 м
[средняя] 
+31.6  +20.4  52  +39  +44  очень
душно 
  990.3         
21:00 25.05 Ю  16 км    8/0 2250 м
[средняя] 
+31.1  +20.7  54  +38  +40  очень
душно 
  990.3         
21:20 25.05 Ю  16 км    8/5 1950 м
[средняя] 
+30.9  +20.9  55  +38  +39  очень
душно 
  990.3         
21:40 25.05 Ю  16 км    5/5 1950 м
[средняя] 
+30.2  +21.1  58  +38  +40  очень
душно 
  990.3         
22:00 25.05 Ю  16 км    5/0 2700 м
[средняя] 
+30.8  +21.8  59  +39  +40  очень
душно 
  990.3         
22:20 25.05 Ю  16 км    ясно  +30.7  +21.5  58  +39  +40  очень
душно 
  990.3         
22:40 25.05   16 км    ясно  +28.8  +22.1  67  +37  +40  очень
душно 
  990.3         
23:00 25.05 Ю  16 км    ясно  +28.1  +22.1  70  +37  +37  очень
душно 
  990.3         
23:20 25.05 Ю  16 км    ясно  +27.6  +22.1  72  +36  +36  очень
душно 
  990.3         
23:40 25.05   16 км    ясно  +26.9  +21.8  74  +35  +35  очень
душно 
  990.3         
00:00 26.05   16 км    ясно  +25.0  +22.5  86  +33  +33  очень
душно 
  990.6         
00:20 26.05   16 км    ясно  +25.6  +22.1  81  +33  +33  очень
душно 
  990.6         
00:40 26.05 Ю  16 км    ясно  +24.6  +21.9  85  +32  +32  очень
душно 
  990.6         
01:00 26.05 Ю  16 км    5/0 2550 м
[средняя] 
+24.5  +21.9  85  +31  +31  очень
душно 
  991.0         
01:20 26.05 СЗ  16 км    8/0 2550 м
[средняя] 
+23.9  +22.0  89  +31  +31  очень
душно 
  991.0         
01:40 26.05   16 км    10/0 2550 м
[средняя] 
+26.2  +21.1  74  +33  +33  очень
душно 
  991.0         
02:00 26.05   16 км    8/0 2550 м
[средняя] 
+25.7  +21.3  77  +33  +33  очень
душно 
  991.0         
02:20 26.05   16 км  слабый дождь  10/0 2250 м
[средняя] 
+25.4  +20.9  76  +32  +32  очень
душно 
  991.3         
02:40 26.05   16 км    10/0 2250 м
[средняя] 
+24.8  +20.6  77  +31  +31  очень
душно 
  991.0         
03:00 26.05   16 км    10/0 2250 м
[средняя] 
+24.2  +21.1  83  +31  +31  очень
душно 
  991.0         
03:20 26.05   16 км    10/0 2250 м
[средняя] 
+24.5  +21.0  81  +31  +31  очень
душно 
  991.0         
03:40 26.05   16 км    10/10 1950 м  +24.5  +21.1  81  +31  +31  очень
душно 
  991.0         
04:00 26.05   16 км    8/5 1950 м
[средняя] 
+23.7  +21.1  85  +30  +30  очень
душно 
  991.0         
04:20 26.05   16 км    8/0 2250 м
[средняя] 
+22.8  +21.4  92  +30  +30  очень
душно 
  990.6         
04:40 26.05   16 км    10/0 2550 м
[средняя] 
+23.0  +21.3  90  +31  +31  очень
душно 
  990.6         
05:00 26.05   16 км    10/0 2250 м
[средняя] 
+22.3  +21.6  96  +29  +29  очень
душно 
  990.6         
05:20 26.05   11 км    10/0 2250 м
[средняя] 
+22.4  +21.1  92  +29  +29  очень
душно 
  990.6         
05:40 26.05   16 км    8/0 2550 м
[средняя] 
+21.9  +21.1  95  +28  +28  душно    990.6         
06:00 26.05   11 км    5/0 2550 м
[средняя] 
+21.5  +21.0  97  +27  +27  душно    990.6         
06:20 26.05   8 км  дымка  ясно  +21.2  +21.1  99  +27  +27  душно    990.6         
06:40 26.05   11 км    ясно  +20.8  +20.8  100  +26  +26  душно    990.6         
07:00 26.05   6 км  дымка  ясно  +20.5  +20.5  100  +25  +25  комфорт    990.6         
07:20 26.05   6 км  дымка  ясно  +20.5  +20.5  100  +25  +25  комфорт    990.6         
07:40 26.05   5 км  дымка  ясно  +20.3  +20.3  100  +24  +24  комфорт    991.0         
08:00 26.05   4 км  дымка  ясно  +20.1  +20.1  100  +24  +24  комфорт    991.0         
08:20 26.05   5 км  дымка  ясно  +20.0  +20.0  100  +23  +23  комфорт    991.0         
08:40 26.05   3 км  дымка  ясно  +19.5  +19.5  100  +22  +22  комфорт    991.3         
09:00 26.05   2 км  дымка  ?/?  +19.4  +19.4  100  +22  +22  комфорт    991.3         
09:20 26.05   800 м  туман  5/5 150 м  +19.8  +19.8  100  +23  +23  комфорт    991.6         
09:40 26.05   400 м  туман  ?/?  +19.2  +19.2  100  +21  +21  комфорт    991.6         
10:00 26.05   4 км  дымка  ясно  +19.6  +19.6  100  +22  +23  комфорт    992.0         
10:20 26.05   5 км  дымка  ясно  +19.7  +19.7  100  +23  +23  комфорт    992.0         

 

Местоположение метеостанции Rowan County Airport: широта 35.6500 долгота -80.5167 высота над уровнем моря 236 м.

В архиве по умолчанию представлена погода в Солсбери за последние 1-2 суток. Обновление информации о фактической погоде в базе происходит ежечасно! Архивные данные за месяц целиком и за предыдущие месяцы Вы можете получить, выбрав интересующий диапазон дат из раскрывающегося списка и нажав кнопку "Ввод!".

Внимание! Архив погоды МЕТАР в базе сайта хранится не более 60 дней. Нет смысла пытаться выбрать более раннюю дату.

Внимание! Время в таблицах - всемирное. Для получения местного времени необходимо прибавить поправку, которая в Солсбери равна -5 ч.

Ветер - указаны скорость ветра в м/с и направление, откуда дует ветер: С - северный, СВ - северо-восточный, В - восточный, ЮВ - юго-восточный, Ю - южный, ЮЗ - юго-западный, З - западный, СЗ - северо-западный.
Видимость - горизонтальная дальность видимости в метрах или километрах. При видимости от 1 до 10 км при отсутствии осадков обычно наблюдается дымка, при ухудшении видимости до 1 км и менее - туман. В сухую погоду видимость может ухудшаться дымом, пылью или мглою.
Атмосферные явления - указаны явления, наблюдавшиеся в указанный момент времени.
Облачность - указаны через наклонную черту верхняя и нижняя облачность в баллах и высота нижней границы облаков в метрах. Внимание: облачность, как и прочие метеорологические величины в США измеряются автоматическими метеостанциями. Указанные значения в баллах носят условный характер и показывают процент времени, в течение которого, в среднем, лазерный луч высотомера отражался от облаков обратно.
T - Температура воздуха - температура, измеренная на высоте 2 м над землей.
Td - Температура точки росы - температура, при понижении до которой содержащийся в воздухе водяной пар достигнет насыщения.
f - Относительная влажность воздуха - влажноcть воздуха, измеренная на высоте 2 м над землей.
Te - Эффективная температура - температура, которую ощущает одетый по сезону человек в тени. Характеристика душности погоды. При расчете учитывается влияние влажности воздуха и скорости ветра на теплоощущения человека.
Tes - Эффективная температура на солнце - температура, которую ощущает человек, с поправкой на солнечный нагрев. Характеристика знойности погоды. Зависит от высоты солнца над горизонтом, облачности и скорости ветра. Ночью, в пасмурную погоду, а также при ветре 12 м/с и более поправка равна нулю.
P - Атмосферное давление - приведенное к уровню моря атмосферное давление.
Po - Атмосферное давление - измеренное на уровне метеостанции атмосферное давление.
Tmin - Минимальная температура - минимум температуры воздуха на высоте 2 м над землей.
Tmax - Максимальная температура - максимум температуры воздуха на высоте 2 м над землей.
R - Количество осадков - Количество выпавших осадков за 3 или 6 часов, мм.
SD - Снежный покров - Высота снежного покрова, см.